STARLINK-32122, 60285

Orbit data source: Space-Track

STARLINK-32122, 60285 is a payload satellite owned by SpaceX/Seattle (US) in LEO that was launched on Sun, 28 Jul 2024 UTC via an FALCON 9 launch vehicle from the Air Force Eastern Test Range (AFETR). Payload-class satellites include a variety of spacecraft equipped with specific instruments for various scientific and technological missions. These include communications satellites like Starlink; space stations such as the ISS; scientific satellites like the Hubble; Earth observation satellites from companies like Planet Labs, Umbra, and HawkEye 360; GPS; miniature CubeSats for education and research; and military/defense satellites.

Loading next visibility...
Identifier
60285, 2024-132H
Orbit
LEO
Country
Flag of USUS
Related business
Manufacturer
SpaceX/Seattle
Mission
Operational Commercial Communications
Bus & Motor
STARLINK V2M, Unknown motor
Mass
730 kg wet, ~700 kg dry
Launch date (UTC)
2024-07-28 (1 year ago)
Launch vehicle
FALCON 9
Launch site
Air Force Eastern Test Range (AFETR)
Object type
Payload
Rocket body
Debris
Shape & HBR
Box + 2 Pan, 17.7 m
Radar Cross Section
33.884 m², Large (>1 m²)

Expand to show TLE details & history
Last TLE update: 17 hours ago

TLE from 17 hours ago
0 STARLINK-32122
1 60285U 24132H   25286.95106464 -.00000728  00000-0 -12471-4 0  9999
2 60285  53.1611  14.0481 0000998 111.5942 248.5165 15.30181664 69097
Epoch: 2025-10-13T22:49Z
TLE epoch observation values (Epoch: 2025-10-13T22:49:31.984Z)
Latitude
-0.00006°
Longitude
8.91831°
Altitude
476.42 km
Speed
7.629 km/s
True Right ascension
00h 56m 11s
True Declination
0° 00' 00"
Sunlit
Object was in full shadow at epoch
Visualization orbit readout
Latitude
Unknown
Longitude
Unknown
Altitude
Unknown
Speed
Unknown
Apparent Right ascension
Unknown
Apparent Declination
Unknown
Sunlit
N/A
Visualization observer readout
Local Sidereal Time
10:50:26
Azimuth
Unknown
Elevation
Unknown
Doppler factor
Unknown
Orbital elements
Apogee altitude
476.21 km
Perigee altitude
474.842 km
Semi-major axis
6,853.663 km
Eccentricity
0.0001
Inclination
53.1611°
RAAN
14.0481°
Arg. of periapsis
111.5942°
True anomaly
248.50586°
Mean anomaly
248.5165°
Eccentric anomaly
248.51118°
Mean motion
3.82524 °/min
Orbital period
94.11 mins
BSTAR
-0.000012471
Loading maneuver chart data...
Computing Atmospheric mass density...
Loading historical data...
Loading historical data...
Loading historical data...
Loading historical data...
Loading historical data...
Loading historical data...
Loading historical data...

Documentation

Showing up to 5 results
|